timestamp,surface_pressure_avg,surface_temp_avg,battery_voltage,lat,long
2023-09-01 00:09:00+00:00,411.1495,19.1,12.09,47.84626,-54.09684
2023-09-01 00:19:00+00:00,405.5746,19.11,12.09,47.84626,-54.09684
2023-09-01 00:29:00+00:00,404.7695,19.17,12.09,47.84626,-54.09684
2023-09-01 00:39:00+00:00,402.4429,19.19,12.09,47.84626,-54.09684
2023-09-01 00:49:00+00:00,398.9012,19.2,12.09,47.84626,-54.09684
2023-09-01 00:59:00+00:00,396.2246,19.29,12.09,47.84626,-54.09684
2023-09-01 01:09:00+00:00,390.5345,19.2,12.09,47.84626,-54.09684
2023-09-01 01:19:00+00:00,385.983,18.99,12.09,47.84626,-54.09684
2023-09-01 01:29:00+00:00,383.30300000000005,19.06,12.09,47.84626,-54.09684
2023-09-01 01:39:00+00:00,381.0596,19.13,12.09,47.84626,-54.09684
2023-09-01 01:49:00+00:00,367.9529,19.1,12.09,47.84626,-54.09684
2023-09-01 01:59:00+00:00,358.0363,19.14,12.09,47.84626,-54.09684
2023-09-01 02:09:00+00:00,355.9314,19.13,12.09,47.84626,-54.09684
2023-09-01 02:19:00+00:00,347.1447,19.04,12.09,47.84626,-54.09684
2023-09-01 02:29:00+00:00,336.9479,19.04,12.09,47.84626,-54.09684
2023-09-01 02:39:00+00:00,328.8014,19.04,12.09,47.84626,-54.09684
2023-09-01 02:49:00+00:00,314.1063,19.1,12.09,47.84626,-54.09684
2023-09-01 02:59:00+00:00,300.3397,19.1,12.09,47.84626,-54.09684
2023-09-01 03:09:00+00:00,293.7631,19.17,12.09,47.84626,-54.09684
2023-09-01 03:19:00+00:00,285.4548,19.17,12.09,47.84626,-54.09684
2023-09-01 03:29:00+00:00,273.5247,19.13,12.09,47.84626,-54.09684
2023-09-01 03:39:00+00:00,262.1031,19.18,12.09,47.84626,-54.09684
2023-09-01 03:49:00+00:00,259.9114,19.2,12.09,47.84626,-54.09684
2023-09-01 03:59:00+00:00,249.4664,19.23,12.09,47.84626,-54.09684
2023-09-01 04:09:00+00:00,237.8881,19.27,12.09,47.84626,-54.09684
2023-09-01 04:19:00+00:00,229.6531,19.22,12.09,47.84626,-54.09684
2023-09-01 04:29:00+00:00,222.3831,19.28,12.09,47.84626,-54.09684
2023-09-01 04:39:00+00:00,214.9048,19.24,12.09,47.84626,-54.09684
2023-09-01 04:49:00+00:00,205.8514,19.26,12.09,47.84626,-54.09684
2023-09-01 04:59:00+00:00,197.0631,19.28,12.09,47.84626,-54.09684
2023-09-01 05:09:00+00:00,195.4298,19.2,12.09,47.84626,-54.09684
2023-09-01 05:19:00+00:00,192.4098,19.2,12.09,47.84626,-54.09684
2023-09-01 05:29:00+00:00,184.2748,19.2,12.09,47.84626,-54.09684
2023-09-01 05:39:00+00:00,182.8081,19.2,12.09,47.84626,-54.09684
2023-09-01 05:49:00+00:00,184.8131,19.2,12.09,47.84626,-54.09684
2023-09-01 05:59:00+00:00,182.7581,19.22,12.09,47.84626,-54.09684
2023-09-01 06:09:00+00:00,178.6948,19.23,12.09,47.84626,-54.09684
2023-09-01 06:19:00+00:00,183.6415,19.2,12.09,47.84626,-54.09684
2023-09-01 06:29:00+00:00,191.4265,19.16,12.09,47.84626,-54.09684
2023-09-01 06:39:00+00:00,184.4765,19.19,12.09,47.84626,-54.09684
2023-09-01 06:49:00+00:00,186.8582,19.17,12.09,47.84626,-54.09684
2023-09-01 06:59:00+00:00,202.1448,19.1,12.09,47.84626,-54.09684
2023-09-01 07:09:00+00:00,204.6698,19.1,12.09,47.84626,-54.09684
2023-09-01 07:19:00+00:00,199.7381,19.1,12.09,47.84626,-54.09684
2023-09-01 07:29:00+00:00,203.9931,19.2,12.09,47.84626,-54.09684
2023-09-01 07:39:00+00:00,212.4631,19.1,12.09,47.84626,-54.09684
2023-09-01 07:49:00+00:00,216.4948,19.01,12.09,47.84626,-54.09684
2023-09-01 07:59:00+00:00,217.2798,19.0,12.09,47.84626,-54.09684
2023-09-01 08:09:00+00:00,222.1148,18.9,12.09,47.84626,-54.09684
2023-09-01 08:19:00+00:00,230.2714,18.92,12.09,47.84626,-54.09684
2023-09-01 08:29:00+00:00,232.7464,19.0,12.09,47.84626,-54.09684
2023-09-01 08:39:00+00:00,239.2047,19.0,12.09,47.84626,-54.09684
2023-09-01 08:49:00+00:00,249.2064,19.0,12.09,47.84626,-54.09684
2023-09-01 08:59:00+00:00,250.9614,19.01,12.09,47.84626,-54.09684
2023-09-01 09:09:00+00:00,250.1548,19.0,12.09,47.84626,-54.09684
2023-09-01 09:19:00+00:00,258.9614,18.8,12.09,47.84626,-54.09684
2023-09-01 09:29:00+00:00,271.3548,18.6,12.09,47.84626,-54.09684
2023-09-01 09:39:00+00:00,273.7248,18.61,12.09,47.84626,-54.09684
2023-09-01 09:49:00+00:00,274.9764,18.57,12.09,47.84626,-54.09684
2023-09-01 09:59:00+00:00,289.5647,18.5,12.09,47.84626,-54.09684
2023-09-01 10:09:00+00:00,302.7546,18.5,12.09,47.84626,-54.09684
2023-09-01 10:19:00+00:00,305.723,18.5,12.09,47.84626,-54.09684
2023-09-01 10:29:00+00:00,319.2213,18.5,12.09,47.84626,-54.09684
2023-09-01 10:39:00+00:00,332.8813,18.5,12.09,47.84626,-54.09684
2023-09-01 10:49:00+00:00,340.0347,18.5,12.09,47.84626,-54.09684
2023-09-01 10:59:00+00:00,344.9746,18.5,12.09,47.84626,-54.09684
2023-09-01 11:09:00+00:00,360.0613,18.5,12.09,47.84626,-54.09684
2023-09-01 11:19:00+00:00,367.9846,18.5,12.09,47.84626,-54.09684
2023-09-01 11:29:00+00:00,372.6996,18.51,12.09,47.84626,-54.09684
2023-09-01 11:39:00+00:00,383.2996,18.51,12.09,47.84626,-54.09684
2023-09-01 11:49:00+00:00,386.4796,18.53,12.09,47.84626,-54.09684
2023-09-01 11:59:00+00:00,380.5396,18.55,12.09,47.84626,-54.09684
2023-09-01 12:09:00+00:00,387.7513,18.53,12.09,47.84626,-54.09684
2023-09-01 12:19:00+00:00,401.6696,18.57,12.17,47.84626,-54.09684
2023-09-01 12:29:00+00:00,398.6995,18.5,12.17,47.84626,-54.09684
2023-09-01 12:39:00+00:00,389.18800000000016,18.5,12.17,47.84626,-54.09684
2023-09-01 12:49:00+00:00,392.6613,18.5,12.17,47.84626,-54.09684
2023-09-01 12:59:00+00:00,401.1345,18.5,12.17,47.84626,-54.09684
2023-09-01 13:09:00+00:00,386.8829,18.5,12.17,47.84626,-54.09684
2023-09-01 13:19:00+00:00,379.2613,18.5,12.17,47.84626,-54.09684
2023-09-01 13:29:00+00:00,385.3313,18.49,12.17,47.84626,-54.09684
2023-09-01 13:39:00+00:00,382.1396,18.5,12.17,47.84626,-54.09684
2023-09-01 13:49:00+00:00,371.4313,18.4,12.17,47.84626,-54.09684
2023-09-01 13:59:00+00:00,366.3546,18.49,12.17,47.84626,-54.09684
2023-09-01 14:09:00+00:00,366.5079,18.4,12.17,47.84626,-54.09684
2023-09-01 14:19:00+00:00,358.208,18.4,12.49,47.84626,-54.09684
2023-09-01 14:29:00+00:00,353.7847,18.4,12.49,47.84626,-54.09684
2023-09-01 14:39:00+00:00,351.8712,18.43,12.49,47.84626,-54.09684
2023-09-01 14:49:00+00:00,330.5762,18.47,12.49,47.84626,-54.09684
2023-09-01 14:59:00+00:00,320.9398,18.49,12.49,47.84626,-54.09684
2023-09-01 15:09:00+00:00,332.918,18.5,12.49,47.84626,-54.09684
2023-09-01 15:19:00+00:00,315.088,18.5,12.73,47.84626,-54.09684
2023-09-01 15:29:00+00:00,283.5814,18.5,12.73,47.84626,-54.09684
2023-09-01 15:39:00+00:00,286.1431,18.5,12.73,47.84626,-54.09684
2023-09-01 15:49:00+00:00,291.2798,18.5,12.73,47.84626,-54.09684
2023-09-01 15:59:00+00:00,262.0063,18.5,12.73,47.84626,-54.09684
2023-09-01 16:09:00+00:00,246.868,18.5,12.73,47.84626,-54.09684
2023-09-01 16:19:01+00:00,253.3381,18.5,12.57,47.84626,-54.09684
2023-09-01 16:29:01+00:00,241.1097,18.62,12.57,47.84626,-54.09684
2023-09-01 16:39:01+00:00,220.8648,18.88,12.57,47.84626,-54.09684
2023-09-01 16:49:01+00:00,218.2214,18.99,12.57,47.84626,-54.09684
2023-09-01 16:59:01+00:00,210.0281,19.0,12.57,47.84626,-54.09684
2023-09-01 17:09:01+00:00,201.2964,19.09,12.57,47.84626,-54.09684
2023-09-01 17:19:00+00:00,188.9898,19.1,12.49,47.84626,-54.09684
2023-09-01 17:29:00+00:00,176.0248,19.1,12.49,47.84626,-54.09684
2023-09-01 17:39:00+00:00,169.4865,19.09,12.49,47.84626,-54.09684
2023-09-01 17:49:00+00:00,164.3865,19.09,12.49,47.84626,-54.09684
2023-09-01 17:59:00+00:00,159.7782,19.08,12.49,47.84626,-54.09684
2023-09-01 18:09:00+00:00,151.3182,19.08,12.49,47.84626,-54.09684
2023-09-01 18:19:00+00:00,145.6882,19.08,12.49,47.84626,-54.09684
2023-09-01 18:29:00+00:00,144.5215,19.04,12.49,47.84626,-54.09684
2023-09-01 18:39:00+00:00,148.1715,19.0,12.49,47.84626,-54.09684
2023-09-01 18:49:00+00:00,150.1365,19.0,12.49,47.84626,-54.09684
2023-09-01 18:59:00+00:00,149.4782,19.0,12.49,47.84626,-54.09684
2023-09-01 19:09:00+00:00,158.7015,19.0,12.49,47.84626,-54.09684
2023-09-01 19:19:00+00:00,168.5815,19.0,12.41,47.84626,-54.09684
2023-09-01 19:29:00+00:00,171.1749,18.99,12.41,47.84626,-54.09684
2023-09-01 19:39:00+00:00,187.5414,18.9,12.41,47.84626,-54.09684
2023-09-01 19:49:00+00:00,184.8965,18.9,12.41,47.84626,-54.09684
2023-09-01 19:59:00+00:00,175.5698,19.0,12.41,47.84626,-54.09684
2023-09-01 20:09:00+00:00,201.6231,18.9,12.41,47.84626,-54.09684
2023-09-01 20:19:00+00:00,203.1198,18.88,12.33,47.84626,-54.09684
2023-09-01 20:29:00+00:00,187.9731,18.99,12.33,47.84626,-54.09684
2023-09-01 20:39:00+00:00,202.8948,18.95,12.33,47.84626,-54.09684
2023-09-01 20:49:00+00:00,215.7014,18.8,12.33,47.84626,-54.09684
2023-09-01 20:59:00+00:00,207.8648,18.88,12.33,47.84626,-54.09684
2023-09-01 21:09:00+00:00,207.3664,18.9,12.33,47.84626,-54.09684
2023-09-01 21:19:00+00:00,226.8798,18.7,12.25,47.84626,-54.09684
2023-09-01 21:29:00+00:00,237.6764,18.6,12.25,47.84626,-54.09684
2023-09-01 21:39:00+00:00,233.3647,18.65,12.25,47.84626,-54.09684
2023-09-01 21:49:00+00:00,240.5498,18.6,12.25,47.84626,-54.09684
2023-09-01 21:59:00+00:00,249.4531,18.5,12.25,47.84626,-54.09684
2023-09-01 22:09:00+00:00,245.3548,18.55,12.25,47.84626,-54.09684
2023-09-01 22:19:00+00:00,256.3415,18.6,12.25,47.84626,-54.09684
2023-09-01 22:29:00+00:00,279.2414,18.57,12.25,47.84626,-54.09684
2023-09-01 22:39:00+00:00,280.7515,18.59,12.25,47.84626,-54.09684
2023-09-01 22:49:00+00:00,285.7647,18.6,12.25,47.84626,-54.09684
2023-09-01 22:59:00+00:00,309.2897,18.6,12.25,47.84626,-54.09684
2023-09-01 23:09:00+00:00,330.923,18.49,12.25,47.84626,-54.09684
2023-09-01 23:19:00+00:00,324.8413,18.61,12.25,47.84626,-54.09684
2023-09-01 23:29:00+00:00,331.3763,18.6,12.25,47.84626,-54.09684
2023-09-01 23:39:00+00:00,350.9296,18.5,12.25,47.84626,-54.09684
2023-09-01 23:49:00+00:00,357.9097,18.5,12.25,47.84626,-54.09684
2023-09-01 23:59:00+00:00,360.7013,18.5,12.25,47.84626,-54.09684
